Theta_e
308 307 307 310 311 311 311 312 314 312 309 310 310 311 311 312 311 311 310 308 307 306 310 312 311 313 317 318 319 321 319 321 322 323 325 329 333 334 335 333 335 347 350 349 347
308 307 306 309 311 311 311 311 310 311 312 313 312 312 312 312 312 312 311 311 309 308 306 310 313 311 317 318 318 316 318 320 321 322 324 326 332 331 333 329 332 343 351 350 348
310 310 308 306 307 310 311 311 311 311 310 310 312 313 313 313 313 312 314 313 311 309 309 308 311 313 313 317 317 317 317 319 322 323 325 329 332 333 329 327 328 327 335 347 349
310 310 309 308 307 306 306 307 310 311 311 311 312 312 313 313 316 313 311 313 309 311 309 310 311 311 311 313 316 315 317 319 321 323 325 327 329 333 331 327 326 327 329 350 348
310 310 309 307 307 307 307 306 306 308 310 310 310 311 311 313 315 314 313 316 314 312 311 309 311 311 309 314 315 316 316 319 320 322 325 328 327 328 330 328 327 326 327 331 347
310 309 308 308 307 307 307 307 306 306 308 310 310 310 310 313 314 317 314 317 316 311 311 311 311 312 313 312 315 317 317 318 319 321 326 327 327 327 328 327 326 326 327 328 332
309 309 309 308 308 307 306 307 306 306 305 308 310 309 310 311 312 318 318 318 317 315 310 309 311 313 313 311 315 317 315 316 318 320 326 327 327 327 327 326 325 326 326 327 331
308 309 308 308 308 308 308 308 307 303 303 305 309 309 310 308 308 308 318 318 317 316 315 310 310 312 312 314 315 314 314 315 317 319 326 327 328 326 326 326 328 327 327 327 328
305 307 307 306 307 308 308 308 306 303 302 305 308 309 311 309 312 308 316 316 315 316 316 317 312 312 313 312 313 313 314 316 317 324 326 326 327 325 326 326 328 329 329 329 327
301 305 305 306 306 307 307 307 303 303 306 308 309 311 310 311 312 313 312 317 317 316 317 318 315 312 312 312 314 313 314 315 317 323 326 326 326 326 327 327 327 329 329 329 327
303 303 302 303 304 305 305 304 302 310 309 310 310 311 310 314 314 315 317 318 318 317 319 316 314 312 312 312 314 315 314 314 321 325 326 326 326 325 326 327 327 329 330 329 329
302 302 302 302 302 303 303 304 305 307 310 309 309 312 313 313 314 317 319 319 319 317 317 314 313 313 313 313 314 315 315 314 323 324 325 325 326 325 326 329 330 329 329 329 328
300 300 300 300 301 302 307 308 309 309 310 311 309 310 312 314 315 316 319 319 318 316 315 317 314 314 314 313 314 314 315 317 322 325 326 327 327 325 325 328 329 328 330 329 327
300 299 300 300 301 305 306 306 306 307 310 312 312 311 310 312 315 317 317 320 317 316 315 318 315 314 315 314 314 314 316 321 323 323 329 327 326 326 326 326 326 327 329 329 327
300 300 300 301 301 301 301 305 307 308 310 307 313 312 311 314 315 318 317 319 317 315 316 318 316 314 315 315 315 315 316 316 320 319 324 328 327 324 326 330 323 324 328 329 327
300 301 301 302 303 302 303 305 307 309 307 307 313 311 313 314 315 319 318 318 316 317 318 319 316 315 314 315 315 316 315 316 319 320 321 320 325 323 322 329 321 321 325 327 328
302 302 304 305 306 305 304 305 310 308 307 312 312 311 313 316 316 319 320 316 315 318 320 320 316 316 315 313 314 315 314 316 321 323 325 321 321 321 321 321 320 320 323 325 327
302 304 307 308 309 308 306 308 309 306 307 309 310 312 315 317 317 318 321 316 315 316 318 318 317 315 315 314 313 313 313 318 320 322 321 321 321 320 321 321 321 320 321 323 324
304 307 308 310 309 308 306 310 307 307 308 308 310 314 315 319 317 317 320 318 316 317 317 317 317 317 316 316 314 314 314 314 318 322 319 317 322 324 322 321 320 320 321 322 325
305 307 310 310 309 308 308 308 308 309 310 309 312 313 313 311 313 318 321 320 317 317 316 318 318 317 317 316 315 315 316 315 324 328 326 325 324 324 323 321 321 324 325 327 329
306 307 310 310 308 309 310 308 309 310 310 313 312 313 313 312 312 317 323 319 317 316 316 316 319 317 317 316 314 314 315 317 324 322 329 331 330 326 325 322 322 325 326 326 331
306 309 309 311 309 305 309 310 310 311 311 314 312 312 312 310 315 321 323 320 317 316 315 315 323 321 320 318 316 315 316 317 320 323 328 330 330 324 325 325 324 324 325 326 326
306 308 310 309 310 309 309 310 311 313 316 315 315 313 313 309 321 324 324 321 317 315 315 318 321 322 321 319 320 317 318 318 319 324 329 330 329 325 326 326 325 324 325 325 326
307 311 309 308 308 309 309 312 312 312 319 318 317 316 314 317 317 320 324 324 316 315 320 321 323 322 320 322 319 320 321 319 321 321 326 329 329 328 328 326 325 324 325 324 324
308 309 307 309 308 309 310 310 310 313 315 318 319 318 318 321 319 320 322 322 316 321 318 322 324 327 324 326 325 319 319 320 321 325 325 330 330 328 327 327 324 325 324 324 323
306 308 307 308 307 309 309 308 309 310 313 319 317 315 316 319 318 319 321 324 319 317 318 322 325 326 326 324 324 325 321 325 327 329 327 329 331 328 325 325 324 324 324 323 322
306 307 308 308 309 309 309 307 308 314 316 316 316 316 315 314 314 314 315 316 317 317 319 324 324 324 326 323 325 325 325 326 327 325 326 326 328 327 325 325 323 323 323 321 320
Wind_Speed
22 22 20 18 19 18 17 19 19 20 19 19 18 19 19 20 22 22 29 27 20 22 16 11 14 21 22 17 19 21 8 12 15 16 16 23 5 9 21 18 18 6 21 27 33
23 22 21 19 19 19 19 19 20 20 21 20 20 20 20 20 24 33 31 22 20 18 26 20 18 21 23 17 14 9 7 17 8 12 13 19 8 15 8 16 15 29 26 38 36
22 23 23 23 21 20 20 21 20 19 20 20 21 20 20 17 22 26 9 8 15 22 20 24 18 21 24 24 24 15 17 8 15 30 20 11 7 13 8 5 10 16 24 47 46
22 24 25 24 23 23 24 23 21 21 20 19 18 18 17 11 6 6 8 12 6 21 21 19 21 26 11 17 28 12 22 20 24 29 18 5 18 12 8 3 19 22 21 15 41
23 26 26 25 26 26 25 24 23 22 21 20 19 16 16 13 29 14 6 20 8 20 28 26 26 25 15 15 21 18 14 25 32 31 10 8 9 10 16 4 21 25 23 19 28
27 28 28 30 29 28 26 24 24 24 22 21 18 15 19 22 40 30 22 22 15 16 28 27 15 29 13 17 19 14 20 20 30 32 5 2 7 11 21 21 19 24 24 22 14
28 29 29 29 27 26 26 25 28 28 26 22 20 19 26 35 18 14 24 21 20 20 28 31 26 20 27 11 29 25 10 14 21 28 3 5 6 7 26 26 30 24 26 25 24
29 29 30 29 30 30 30 31 33 32 29 26 20 20 28 37 37 38 26 26 18 35 20 24 30 28 30 21 19 15 9 14 19 13 5 7 15 11 28 27 23 24 23 30 28
32 30 30 30 30 31 33 34 38 37 25 21 18 18 18 21 25 30 35 31 21 30 26 18 24 28 24 13 11 13 17 17 12 10 6 8 4 12 35 28 25 18 26 33 33
28 27 27 28 29 28 32 38 40 19 17 12 19 11 25 23 20 25 37 33 26 23 31 23 17 11 14 12 19 13 12 14 17 10 3 6 8 11 29 31 31 25 27 33 32
27 27 28 28 29 32 34 34 12 2 13 13 16 24 26 10 23 20 22 33 31 25 15 21 12 21 21 17 9 8 15 13 9 6 6 10 8 10 23 26 28 20 23 30 34
30 28 28 28 28 27 26 15 18 11 17 24 37 37 40 35 20 17 23 23 21 18 15 10 22 15 15 16 16 19 16 19 7 10 10 10 16 16 16 18 32 25 23 25 32
31 30 30 30 30 26 11 16 14 17 11 27 37 48 50 31 39 40 27 35 22 20 22 21 13 19 21 19 20 23 21 13 7 11 18 7 7 8 15 34 36 32 32 28 31
33 31 29 29 22 8 17 10 22 18 5 10 19 32 44 39 14 43 31 36 15 26 23 17 14 23 21 24 22 23 21 16 15 12 11 8 5 7 13 23 25 27 29 31 29
33 31 31 26 32 33 25 10 8 15 6 9 8 16 19 34 7 28 40 39 23 21 20 18 21 23 24 21 24 20 13 12 15 9 5 20 9 15 22 25 23 15 25 29 31
36 38 37 35 27 32 14 13 16 2 9 6 9 20 9 35 13 22 29 37 35 20 22 16 20 19 16 19 20 16 14 18 6 13 13 19 19 17 14 28 21 15 27 30 35
41 41 27 18 21 7 8 14 3 5 10 5 10 14 21 16 25 13 23 27 23 20 15 25 23 23 17 18 18 18 12 9 5 1 12 12 16 15 10 24 25 21 26 29 32
44 30 19 23 22 8 3 3 8 10 14 11 16 16 8 11 28 18 18 21 22 18 12 19 18 24 22 10 22 20 14 6 8 9 15 16 12 21 21 17 26 31 31 28 27
38 20 15 16 17 12 6 3 4 7 10 11 17 5 7 7 11 21 24 22 25 22 9 14 16 23 24 12 20 19 15 8 3 5 2 5 7 1 12 14 16 25 26 21 25
28 25 5 10 13 14 2 5 10 17 21 19 7 2 7 12 11 15 21 22 25 23 12 3 12 16 23 21 16 15 9 8 4 2 5 6 4 4 12 17 17 15 22 33 28
20 12 7 18 15 5 3 6 15 21 19 4 4 1 3 3 11 8 14 11 22 21 17 5 3 11 18 13 10 11 9 4 8 7 1 3 7 4 4 22 16 14 26 31 34
14 4 12 19 2 1 3 5 9 16 20 13 5 8 6 5 7 10 16 11 28 20 23 9 3 1 5 3 10 9 9 12 6 7 6 3 6 9 6 19 20 20 27 29 27
18 7 10 15 4 5 5 10 10 10 12 5 5 5 2 4 5 11 22 19 34 20 10 7 4 3 1 9 8 16 8 8 6 8 4 4 5 6 11 12 23 22 26 29 30
8 4 7 7 14 7 7 7 15 16 11 6 4 4 4 6 3 1 2 6 30 15 13 6 3 5 10 5 5 5 6 6 6 5 13 10 13 10 8 6 14 22 29 27 27
11 5 5 6 9 15 10 8 15 10 9 12 2 4 5 2 3 2 2 9 19 17 5 4 4 4 3 4 7 6 6 6 5 4 5 12 11 5 5 10 14 7 22 26 24
11 6 8 14 18 13 6 6 8 10 4 8 7 10 7 5 3 1 3 6 5 6 5 4 3 5 4 10 13 6 8 10 15 16 11 13 11 8 4 23 18 20 11 18 26
21 19 9 10 10 9 11 8 8 15 9 10 12 4 9 7 9 14 14 17 7 8 4 5 4 2 3 9 6 5 10 5 10 13 15 8 8 11 13 14 14 10 2 16 28
Wind_Direction
332 330 325 319 320 318 310 302 296 294 292 292 291 293 295 298 296 288 267 257 255 239 232 191 212 209 212 243 237 234 237 239 240 248 258 277 342 20 334 343 327 329 146 145 157
334 332 326 322 320 318 316 308 304 294 291 288 290 290 293 298 300 282 281 277 247 232 216 204 192 202 213 222 235 214 234 233 244 262 265 298 286 275 327 6 290 10 138 147 155
332 332 331 323 319 313 310 309 305 302 296 291 285 287 291 301 312 289 300 261 233 220 219 218 199 208 210 224 225 243 236 247 228 254 271 340 315 261 122 322 321 357 324 168 164
326 328 328 325 323 316 309 304 300 300 297 295 294 291 286 294 255 185 110 17 244 211 211 204 223 238 200 213 223 238 242 243 258 262 259 336 323 291 188 234 309 337 3 171 179
319 323 326 325 321 318 313 307 295 293 292 290 288 289 289 245 238 224 266 315 304 207 216 205 219 224 224 205 224 231 233 242 253 262 275 294 315 313 274 257 301 320 323 357 183
316 317 317 317 317 314 311 309 308 291 288 286 283 278 263 254 255 249 255 267 260 216 215 210 218 220 234 228 210 228 239 241 247 256 337 182 298 342 302 318 303 305 314 332 312
315 316 313 315 317 316 312 305 310 302 289 277 278 272 255 243 249 217 231 214 232 245 212 209 202 218 231 226 236 226 230 240 248 251 145 53 305 263 293 300 288 291 301 309 330
303 306 308 308 309 310 305 304 308 305 289 281 273 272 260 267 270 256 227 228 233 231 231 214 211 238 258 247 233 233 233 233 235 237 166 153 258 279 275 294 282 274 286 293 298
303 302 300 300 302 305 301 302 303 303 289 270 265 247 271 277 243 237 216 231 214 211 216 206 213 230 254 246 235 227 225 231 230 191 167 150 206 255 260 280 287 293 283 282 287
312 309 302 298 298 296 298 300 304 295 271 259 243 252 252 242 244 253 215 208 221 221 196 195 202 218 238 221 216 214 222 220 225 198 115 257 236 237 259 261 275 265 276 273 272
322 321 316 308 300 297 300 312 334 299 220 216 204 221 272 256 299 244 212 193 214 234 185 179 197 210 218 228 236 246 238 221 213 168 172 238 256 251 257 267 255 271 260 254 261
321 318 315 313 311 307 298 275 268 294 291 261 245 240 258 263 288 264 198 188 209 214 193 182 213 214 211 222 227 244 242 236 188 182 186 213 234 243 259 253 261 254 238 251 258
323 320 316 314 310 312 318 281 308 302 278 269 242 241 238 244 242 254 202 188 196 204 212 202 198 213 206 215 216 235 241 217 187 193 207 198 262 270 273 250 243 239 238 245 244
327 325 326 325 319 294 274 283 294 317 283 262 229 245 235 222 265 237 232 185 192 206 212 204 206 206 214 214 214 228 233 201 208 222 233 193 255 234 251 253 238 219 218 227 228
328 327 322 319 301 288 302 308 326 296 291 284 212 204 211 184 210 220 211 191 197 186 210 195 200 202 216 208 217 232 234 221 201 225 177 224 242 235 220 228 221 209 211 217 229
331 326 321 312 295 287 285 307 307 236 250 300 45 336 183 190 224 185 199 198 206 197 201 208 207 207 215 219 215 223 227 227 168 228 232 227 205 245 230 213 214 202 210 216 223
334 326 321 308 292 342 271 271 239 223 311 63 0 347 330 193 219 191 191 182 193 196 193 210 202 220 201 209 217 215 211 223 188 115 235 268 219 233 226 218 198 193 201 208 213
334 338 352 328 315 301 181 190 216 248 250 343 341 326 295 184 212 227 194 184 202 202 192 193 214 210 217 188 211 222 207 158 164 195 235 242 237 234 234 210 180 182 188 203 210
340 2 355 38 8 196 179 207 263 303 304 331 326 322 337 311 245 207 206 192 199 201 198 188 206 217 217 188 198 221 223 192 152 355 233 215 231 44 204 159 167 179 189 187 159
346 344 7 358 332 170 164 253 260 265 308 311 294 303 4 312 320 197 194 195 199 210 220 280 197 210 213 187 202 207 178 183 34 66 319 304 186 144 138 158 160 146 141 133 131
1 328 321 329 350 187 248 250 297 288 287 319 346 200 268 287 272 254 195 188 200 205 215 205 202 215 196 195 182 201 205 140 120 161 265 352 291 324 225 156 135 125 130 128 127
353 318 326 317 0 332 278 264 298 290 295 284 181 190 221 224 262 234 178 206 195 207 207 202 319 209 215 18 186 200 186 193 165 168 123 146 279 318 40 127 126 120 123 126 126
325 284 339 0 357 315 272 291 270 273 278 264 177 143 131 245 254 195 203 210 185 192 181 186 185 72 265 285 283 212 218 191 175 107 133 180 245 307 49 100 127 125 121 117 125
330 319 347 323 341 320 309 316 339 319 29 12 127 167 178 217 215 280 288 279 185 176 104 92 98 153 191 225 194 167 229 186 161 120 161 176 190 147 60 112 84 107 111 109 104
2 4 358 310 327 324 341 316 334 342 332 3 107 344 296 117 30 7 344 287 179 127 83 85 83 15 174 14 342 189 221 249 194 81 106 143 106 85 72 59 62 87 115 118 109
357 333 314 301 316 328 349 331 319 328 302 20 24 353 348 59 46 169 346 254 128 110 83 38 29 49 13 25 19 334 190 59 95 94 77 97 96 101 92 80 70 93 115 131 127
339 326 306 303 330 346 342 333 308 330 18 13 3 44 8 335 294 268 265 294 265 138 101 80 114 77 38 358 351 8 349 351 96 102 129 131 150 158 133 133 133 129 178 114 114